Regional Weather Roundup
Issued by NWS

Home | Current Version | Previous Version | Text Only | Print | Product List | Glossary On
Versions: 1 2 3 4 5 6 7 8 9 10 11 12 13 14 15 16 17 18 19 20 21 22 23 24 25 26 27 28 29 30 31 32 33 34 35 36 37 38 39 40 41 42 43 44 45 46 47 48 49 50
000
ASUS44 KMEG 201510
RWRTN
TENNESSEE HOURLY STATE WEATHER ROUNDUP
NATIONAL WEATHER SERVICE MEMPHIS TN
900 AM CST TUE FEB 20 2018

TNZ002-004-019-021-049-052-054-088>092-201600-
WEST TENNESSEE

CITY           SKY/WX    TMP DP  RH WIND       PRES   REMARKS
MEMPHIS INTL   PTSUNNY   69  61  75 S21G29    30.14R
JACKSON        FAIR      70  60  70 S13G23    30.16R
DYERSBURG      FAIR      70  61  73 S10G17    30.14R
SOMERVILLE     MOSUNNY   70  61  73 S12G21    30.15R
COVINGTON      SUNNY     70  61  73 S16G22    30.14R
UNION CITY     SUNNY     70  59  68 S15G21    30.12R
BOLIVAR        MOSUNNY   68  61  77 S20G28    30.16R
PARIS          SUNNY     70  59  68 S17G25    30.15R
HUNTINGDON       N/A     70  59  68 S16G23    30.15S
LEXINGTON      MOSUNNY   68  59  73 S14G29    30.19R
SELMER         CLOUDY    66  61  82 S10G24    30.19S
SAVANNAH       CLOUDY    66  61  82 S17G24    30.21R
$$

TNZ008-025-027-028-033-062-065-066-201600-
NORTH MIDDLE TENNESSEE

CITY           SKY/WX    TMP DP  RH WIND       PRES   REMARKS
NASHVILLE      CLOUDY    71  57  61 S21G32    30.24R
PORTLAND       SUNNY     68  59  73 S17G25    30.21S
CLARKSVILLE    FAIR      70  54  56 S21G26    30.17S
SMYRNA         FAIR      70  58  65 S13G22    30.25S
COOKEVILLE     MOSUNNY   70  59  68 S14       30.29R
GALLATIN       SUNNY     70  57  64 S12G18    30.26R
CROSSVILLE     PTSUNNY   62  56  80 S10G21    30.35R
$$

TNZ061-075-076-078-094-096-097-201600-
SOUTH MIDDLE TENNESSEE

CITY           SKY/WX    TMP DP  RH WIND       PRES   REMARKS
FAYETTEVILLE   MOSUNNY   66  59  77 S18G26    30.29S
TULLAHOMA      MOSUNNY   66  59  77 S20       30.28S
WINCHESTER     SUNNY     66  59  77 S14       30.31S
MCMINNVILLE    PTSUNNY   70  59  68 S14G22    30.29R
COLUMBIA       MOSUNNY   68  61  77 S10G20    30.22S
SHELBYVILLE    SUNNY     70  59  68 S18G25    30.26S
$$

TNZ017-018-042-046-047-201600-
NORTHEAST TENNESSEE

CITY           SKY/WX    TMP DP  RH WIND       PRES   REMARKS
TRI CITIES     FAIR      68  56  65 S3        30.37R
ELIZABETHTON   FAIR      68  54  60 E5        30.38S
$$

TNZ012-013-036-069-073-074-201600-
CENTRAL EAST TENNESSEE

CITY           SKY/WX    TMP DP  RH WIND       PRES   REMARKS
KNOXVILLE      FAIR      67  59  75 VRB3      30.32S
OAK RIDGE      FAIR      66  59  78 VRB6      30.35R
DOWNTOWN KNOXV SUNNY     63  55  77 CALM      30.35S
GATLINBURG     SUNNY     63  54  72 CALM      30.35S
MORRISTOWN     SUNNY     66  55  68 CALM      30.35S
JACKSBORO      MOSUNNY   70  55  60 S17G31    30.36R
$$

TNZ083-085-099-201600-
SOUTHEAST TENNESSEE

CITY           SKY/WX    TMP DP  RH WIND       PRES   REMARKS
CHATTANOOGA    PTSUNNY   63  58  83 S6        30.36R
$$

SKY/WX REPORTED AS FAIR MEANS FEW OR NO CLOUDS BELOW
12 THOUSAND FEET.




USA.gov is the U.S. government's official web portal to all federal, state and local government web resources and services.